Miscellaneous Local Product
Issued by NWS North Platte, NE

Home | Current Version | Previous Version | Text Only | Print | Product List | Glossary On
Versions: 1 2 3 4 5 6 7 8 9 10 11 12 13 14 15 16 17 18 19 20 21 22 23 24 25 26 27 28 29 30 31 32 33 34 35 36 37 38 39 40 41 42 43 44 45 46 47 48 49 50
827
AXUS43 KLBF 240010
MISLBF


WESTERN AND NORTH CENTRAL NEBRASKA HOURLY WEATHER ROUNDUP
NATIONAL WEATHER SERVICE NORTH PLATTE NE
700 PM CDT MON MAY 23 2016

NOTE: "FAIR" INDICATES FEW OR NO CLOUDS BELOW 12,000 FEET WITH NO
SIGNIFICANT WEATHER AND/OR OBSTRUCTIONS TO VISIBILITY.

NOTE: STATIONS NOT REPORTING VARIABLES SUCH AS SKY/WEATHER OR
PRESSURE ARE PROVIDED BY RAWS AND APRS NETWORKS AND ARE NOT UNDER
NATIONAL WEATHER SERVICE QUALITY CONTROL.

...OBSERVATIONS IN AND NEAR THE EASTERN PANHANDLE OF NEBRASKA...

CITY           SKY/WX    TMP DP  RH WIND       PRES   REMARKS
PINE RIDGE     MOSUNNY   72  28  19 W14G20    29.76S
CHADRON        CLOUDY    72  32  23 W6        29.76S
ALLIANCE       LGT RAIN  59  39  47 S12G25    29.87R
SIDNEY         CLOUDY    63  40  42 W9        29.89R
BIG SPRINGS      N/A     77  34  21 CALM        N/A
$$

...OBSERVATIONS IN NORTHERN NEBRASKA AND FAR SOUTHERN SOUTH DAKOTA...

CITY           SKY/WX    TMP DP  RH WIND       PRES   REMARKS
WINNER         FAIR      78  47  33 S5        29.70F
VALENTINE      SUNNY     76  30  18 W13       29.74R
THEDFORD       SUNNY     77  35  22 W10       29.78S
AINSWORTH      SUNNY     76  35  22 SW12      29.75S
O`NEILL        SUNNY     78  49  35 SW7       29.74S
ORD            PTSUNNY   76  52  43 S5        29.73F
BROKEN BOW     SUNNY     78  43  28 W8        29.76S
BUTTE            N/A     77  47  34 SW3         N/A
CHAMBERS         N/A     80  51  35 S6          N/A
EWING            N/A     78  58  49 S7          N/A
$$

...OBSERVATIONS IN SOUTHWEST NEBRASKA AND FAR NORTHEAST COLORADO...

CITY           SKY/WX    TMP DP  RH WIND       PRES   REMARKS
WRAY           FAIR      72  37  28 SE6       29.81S
HOLYOKE        FAIR      79  41  25 E9        29.82F
IMPERIAL       SUNNY     75  37  25 SE6       29.81S
OGALLALA       SUNNY     74  34  23 S10       29.81R
NORTH PLATTE   SUNNY     76  45  33 NW6       29.78S HAZE
MCCOOK         SUNNY     77  46  33 CALM      29.78R
LEXINGTON      MOSUNNY   76  53  44 CALM      29.76S
PAXTON           N/A     76  38  25 CALM        N/A
STAPLETON        N/A     79  43  27 CALM        N/A
GOTHENBURG       N/A     82  34  18 CALM        N/A
CALLAWAY         N/A     78  42  27 W9          N/A
$$

...OBSERVATIONS IN CENTRAL LINCOLN COUNTY AREA...

CITY           SKY/WX    TMP DP  RH WIND       PRES   REMARKS
N.P. AIRPORT   SUNNY     76  45  33 NW6       29.78S HAZE
N.P. DOWNTOWN    N/A     78  34  20 NW3         N/A
N.P. SOUTHEAST   N/A     79  31  17 CALM        N/A
N.P. HILLCREST   N/A     77  34  21 NW3         N/A
$$

...SOME OBSERVATIONS FROM AROUND THE REGION...

CITY           SKY/WX    TMP DP  RH WIND       PRES   REMARKS
DENVER         PTSUNNY   62  42  47 NE13      29.86F
LARAMIE        CLOUDY    56  21  25 VRB3      29.91S
CHEYENNE       MOSUNNY   58  40  51 S18       29.90F
SCOTTSBLUFF    LGT RAIN  56  43  61 S20       29.89R
RAPID CITY     SUNNY     74  24  15 SW15G26   29.70F
BISMARCK       SUNNY     74  36  25 NW6       29.67S
PIERRE         MOSUNNY   76  45  33 S9        29.67S
SIOUX FALLS    CLOUDY    72  59  63 SW5       29.74R
OMAHA          PTSUNNY   72  64  76 S7        29.77F
GRAND ISLAND   CLOUDY    68  63  84 NW3       29.76R THUNDER
KANSAS CITY    PTSUNNY   70  62  76 SE8       29.82S
WICHITA        PTSUNNY   73  62  68 SE18G25   29.79S
OKLAHOMA CITY  DRIZZLE   70  69  97 SE13      29.83F FOG
DALLAS         MOSUNNY   82  69  64 S16       29.80F
AMARILLO       SUNNY     87  41  19 SW12      29.76F
DODGE CITY     MOSUNNY   77  68  73 SE15      29.75R
HAYS           SUNNY     79  61  53 S14       29.74F
GOODLAND       SUNNY     75  47  36 E10       29.80S
$$




USA.gov is the U.S. government's official web portal to all federal, state and local government web resources and services.